Weather History for KFYV - July, 2013

Change the Weather History Date:

Sunday, July 21, 2013

  Actual Average Record
Temperature  
Mean Temperature 77 °F 78 °F  
Max Temperature 86 °F 89 °F 102 °F (1954)
Min Temperature 68 °F 67 °F 52 °F (1971)
Cooling Degree Days 12 13  
Month to date cooling degree days 236 260  
Year to date cooling degree days 662 618  
Since 1 June cooling degree days 526 505  
Growing Degree Days 26 (Base 50)    
Moisture  
Dew Point 69 °F    
Average Humidity 79    
Maximum Humidity 93    
Minimum Humidity 65    
Precipitation  
Precipitation 0.01 in 0.11 in 1.85 in (2015)
Month to date precipitation 1.17 2.49  
Year to date precipitation 26.64 27.68  
Sea Level Pressure  
Sea Level Pressure 29.89 in    
Wind  
Wind Speed 4 mph (SSW)    
Max Wind Speed 14 mph    
Max Gust Speed 30 mph    
Visibility 10 miles    
Events Rain    
T = Trace of Precipitation, MM = Missing Value Source: NWS Daily Summary

Daily Weather History Graph

Daily Weather History Graph

Search for Another Location

Airport or City:

Trip Planner

Search our weather history database for the weather conditions in past years. The results will help you decide how hot, cold, wet, or windy it might be!

Date:

Astronomy

Jul. 21, 2013 Rise Set
Actual Time 6:15 AM CDT 8:29 PM CDT
Civil Twilight 5:46 AM CDT 8:58 PM CDT
Nautical Twilight 5:11 AM CDT 9:34 PM CDT
Astronomical Twilight 4:32 AM CDT 10:13 PM CDT
Moon 7:30 PM CDT (7/21) 5:01 AM CDT (7/21)
Length of Visible Light 15h 12m
Length of Day
14h 14m
Waxing Gibbous, 98% of the Moon is Illuminated
Jul 21
Waxing Gibbous
Jul 22
Full
Jul 29
Last Quarter
Aug 6
New
Aug 14
First Quarter

Hourly Weather History & Observations

Time (CDT) Temp. Heat Index Dew Point Humidity Pressure Visibility Wind Dir Wind Speed Gust Speed Precip Events Conditions
12:53 AM 73.0 °F - 66.0 °F 79% 29.92 in 10.0 mi Calm Calm - N/A   Clear
1:53 AM 72.0 °F - 66.0 °F 81% 29.90 in 10.0 mi Calm Calm - N/A   Clear
2:53 AM 71.1 °F - 66.0 °F 84% 29.90 in 10.0 mi Calm Calm - N/A   Clear
3:53 AM 70.0 °F - 66.9 °F 90% 29.90 in 10.0 mi Calm Calm - N/A   Clear
4:53 AM 68.0 °F - 66.9 °F 96% 29.90 in 10.0 mi Calm Calm - N/A   Clear
5:53 AM 68.0 °F - 66.0 °F 93% 29.92 in 10.0 mi NNW 5.8 mph - N/A   Mostly Cloudy
6:53 AM 69.1 °F - 66.9 °F 93% 29.92 in 10.0 mi Calm Calm - N/A   Scattered Clouds
7:53 AM 71.1 °F - 68.0 °F 90% 29.93 in 10.0 mi Calm Calm - N/A   Overcast
8:53 AM 73.9 °F - 68.0 °F 82% 29.93 in 10.0 mi Calm Calm - N/A   Partly Cloudy
9:20 AM 75.2 °F - 69.8 °F 83% 29.98 in 10.0 mi Calm Calm - N/A   Mostly Cloudy
9:53 AM 75.9 °F - 69.1 °F 79% 29.93 in 10.0 mi Calm Calm - N/A   Scattered Clouds
10:53 AM 79.0 °F - 70.0 °F 74% 29.93 in 10.0 mi SSW 5.8 mph - N/A   Clear
11:53 AM 78.1 °F - 70.0 °F 76% 29.95 in 10.0 mi South 6.9 mph - N/A   Clear
12:53 PM 78.1 °F - 72.0 °F 81% 29.93 in 10.0 mi South 4.6 mph - 0.00 in Rain Light Rain
1:53 PM 79.0 °F - 72.0 °F 79% 29.91 in 10.0 mi SW 4.6 mph - 0.01 in   Scattered Clouds
2:53 PM 79.0 °F - 72.0 °F 79% 29.89 in 10.0 mi SW 3.5 mph - 0.00 in   Overcast
3:53 PM 84.0 °F 89.0 °F 71.1 °F 65% 29.86 in 10.0 mi SSW 8.1 mph - N/A   Scattered Clouds
4:53 PM 84.0 °F 89.0 °F 71.1 °F 65% 29.85 in 10.0 mi South 5.8 mph - N/A   Overcast
5:53 PM 84.0 °F 89.0 °F 71.1 °F 65% 29.84 in 10.0 mi South 9.2 mph - N/A   Overcast
6:53 PM 84.0 °F 89.0 °F 71.1 °F 65% 29.83 in 10.0 mi South 12.7 mph - N/A   Scattered Clouds
7:53 PM 82.9 °F 87.0 °F 70.0 °F 65% 29.84 in 10.0 mi SW 6.9 mph - N/A   Scattered Clouds
8:53 PM 80.1 °F 83.2 °F 70.0 °F 71% 29.84 in 10.0 mi SSW 3.5 mph - N/A   Clear
9:53 PM 78.1 °F - 71.1 °F 79% 29.85 in 10.0 mi Calm Calm - N/A   Scattered Clouds
10:53 PM 78.1 °F - 70.0 °F 76% 29.86 in 10.0 mi SSW 9.2 mph - N/A   Clear
11:53 PM 78.1 °F - 69.1 °F 74% 29.86 in 10.0 mi SW 5.8 mph - N/A   Clear